Погода в Морено Валли

США     33°55′45″N   117°15′38″W
темп.,
°C
ветер,
м/с
пор.,
м/с
влажн.,
%
обл.,
%
осадки,
мм/ч
давл.,
гПа
погр.,
м
18 мая, вт
вт1823:00+14зюз127930 0.0 1016217
02:00+14юз128164 0.0 1016386
05:00+14зюз117963 0.0 1015403
08:00+15зюз22682 0.0 1015513
11:00+22зюз33400 0.0 1014747
14:00+26зсз54290 0.0 1011945
17:00+26зсз44310 0.0 1010955
20:00+21з22460 0.0 1010220
19 мая, ср
ср1923:00+17юз11620 0.0 1012143
02:00+15ю11710 0.0 1012109
05:00+14ююз117551 0.0 101198
08:00+17зюз11610 0.0 1012439
11:00+23з33360 0.0 1010983
14:00+27зсз55250 0.0 10091307
17:00+26зсз55270 0.0 10071267
20:00+19зюз22499 0.0 1009332
20 мая, чт
чт2023:00+15юв23752 0.0 1011174
02:00+12юв338824 0.0 1011200
05:00+12юв238545 0.0 1011281
08:00+13ююв337439 0.0 1012544
11:00+19ю34460 0.0 10111205
14:00+24зюз44320 0.0 10071743
17:00+23з55340 0.0 10071747
20:00+17ююз445627 0.0 1010632
21 мая, пт
пт2123:00+14ююв447280 0.0 1011618
02:00+12ююв457459 0.0 1011427
05:00+11юв347977 0.0 1012294
08:00+12ю326739 0.0 1014509
11:00+18юз32374 0.1 10141841
14:00+21з46220 0.0 10122474
17:00+19зюз97273 0.0 10121932
20:00+15зюз34370 0.0 1014466
22 мая, сб
сб2223:00+12ююв22530 0.0 1016260
02:00+9юв33810 0.0 1017173
05:00+8вюв23858 0.0 1017206
08:00+11юв23660 0.0 1018610
11:00+18ююз22350 0.0 10171325
14:00+22зюз33200 0.0 10142340
17:00+21зюз64304 0.0 10132106
20:00+15зюз33504 0.0 1016483